Time,TemperatureF,DewpointF,PressureIn,WindDirection,WindDirectionDegrees,WindSpeedMPH,WindSpeedGustMPH,Humidity,HourlyPrecipIn,Conditions,Clouds,dailyrainin,SoftwareType,DateUTC
2013-06-07 00:22:00,57.0,55.0,29.91,North,0,0.0,-999.0,92,0.00,,,-99.99,,2013-06-07 07:22:00,
2013-06-07 00:32:00,57.0,55.0,29.91,North,0,0.0,-999.0,92,0.00,,,-99.99,,2013-06-07 07:32:00,
2013-06-07 00:42:00,57.0,55.0,29.91,North,0,0.0,-999.0,92,0.00,,,-99.99,,2013-06-07 07:42:00,
2013-06-07 00:52:00,57.0,55.0,29.91,North,0,0.0,-999.0,92,0.00,,,-99.99,,2013-06-07 07:52:00,
2013-06-07 01:22:00,57.0,55.0,29.90,North,0,0.0,-999.0,93,0.00,,,-99.99,,2013-06-07 08:22:00,
2013-06-07 01:32:00,57.0,55.0,29.90,North,0,0.0,-999.0,93,0.00,,,-99.99,,2013-06-07 08:32:00,
2013-06-07 01:42:00,57.0,55.0,29.90,North,0,0.0,-999.0,93,0.00,,,-99.99,,2013-06-07 08:42:00,
2013-06-07 01:52:00,57.0,55.0,29.90,North,0,0.0,-999.0,93,0.00,,,-99.99,,2013-06-07 08:52:00,
2013-06-07 02:22:00,57.0,55.0,29.89,North,0,0.0,-999.0,93,0.00,,,-99.99,,2013-06-07 09:22:00,
2013-06-07 02:32:00,57.0,55.0,29.89,North,0,0.0,-999.0,93,0.00,,,-99.99,,2013-06-07 09:32:00,
2013-06-07 02:43:00,57.0,55.0,29.89,North,0,0.0,-999.0,93,0.00,,,-99.99,,2013-06-07 09:43:00,
2013-06-07 02:53:00,57.0,55.0,29.89,North,0,0.0,-999.0,93,0.00,,,-99.99,,2013-06-07 09:53:00,
2013-06-07 03:23:00,56.0,54.0,29.87,West,280,1.0,-999.0,93,0.00,,,-99.99,,2013-06-07 10:23:00,
2013-06-07 03:32:00,56.0,54.0,29.87,West,280,1.0,-999.0,93,0.00,,,-99.99,,2013-06-07 10:32:00,
2013-06-07 03:42:00,56.0,54.0,29.87,West,280,1.0,-999.0,93,0.00,,,-99.99,,2013-06-07 10:42:00,
2013-06-07 03:52:00,56.0,54.0,29.87,West,280,1.0,-999.0,93,0.00,,,-99.99,,2013-06-07 10:52:00,
2013-06-07 04:22:00,56.0,54.0,29.86,West,280,1.0,-999.0,94,0.00,,,-99.99,,2013-06-07 11:22:00,
2013-06-07 04:32:00,56.0,54.0,29.86,West,280,1.0,-999.0,94,0.00,,,-99.99,,2013-06-07 11:32:00,
2013-06-07 04:42:00,56.0,54.0,29.86,West,280,1.0,-999.0,94,0.00,,,-99.99,,2013-06-07 11:42:00,
2013-06-07 04:52:00,56.0,54.0,29.86,West,280,1.0,-999.0,94,0.00,,,-99.99,,2013-06-07 11:52:00,
2013-06-07 05:22:00,56.0,54.0,29.86,North,0,0.0,-999.0,94,0.00,,,-99.99,,2013-06-07 12:22:00,
2013-06-07 05:32:00,56.0,54.0,29.86,North,0,0.0,-999.0,94,0.00,,,-99.99,,2013-06-07 12:32:00,
2013-06-07 05:42:00,56.0,54.0,29.86,North,0,0.0,-999.0,94,0.00,,,-99.99,,2013-06-07 12:42:00,
2013-06-07 05:52:00,56.0,54.0,29.86,North,0,0.0,-999.0,94,0.00,,,-99.99,,2013-06-07 12:52:00,
2013-06-07 06:22:00,56.0,54.0,29.86,North,0,0.0,-999.0,94,0.00,,,-99.99,,2013-06-07 13:22:00,
2013-06-07 06:32:00,56.0,54.0,29.86,North,0,0.0,-999.0,94,0.00,,,-99.99,,2013-06-07 13:32:00,
2013-06-07 06:42:00,56.0,54.0,29.86,North,0,0.0,-999.0,94,0.00,,,-99.99,,2013-06-07 13:42:00,
2013-06-07 06:52:00,56.0,54.0,29.86,North,0,0.0,-999.0,94,0.00,,,-99.99,,2013-06-07 13:52:00,
2013-06-07 07:22:00,56.0,54.0,29.86,West,280,1.0,-999.0,94,0.00,,,-99.99,,2013-06-07 14:22:00,
2013-06-07 07:32:00,56.0,54.0,29.86,West,280,1.0,-999.0,94,0.00,,,-99.99,,2013-06-07 14:32:00,
2013-06-07 07:42:00,56.0,54.0,29.86,West,280,1.0,-999.0,94,0.00,,,-99.99,,2013-06-07 14:42:00,
2013-06-07 07:52:00,56.0,54.0,29.86,West,280,1.0,-999.0,94,0.00,,,-99.99,,2013-06-07 14:52:00,
2013-06-07 08:22:00,57.0,55.0,29.87,North,0,0.0,-999.0,94,0.00,,,-99.99,,2013-06-07 15:22:00,
2013-06-07 08:33:00,57.0,55.0,29.87,North,0,0.0,-999.0,94,0.00,,,-99.99,,2013-06-07 15:33:00,
2013-06-07 08:43:00,57.0,55.0,29.87,North,0,0.0,-999.0,94,0.00,,,-99.99,,2013-06-07 15:43:00,
2013-06-07 08:53:00,57.0,55.0,29.87,North,0,0.0,-999.0,94,0.00,,,-99.99,,2013-06-07 15:53:00,
2013-06-07 09:22:00,57.0,55.0,29.88,WNW,290,3.0,-999.0,94,0.00,,,-99.99,,2013-06-07 16:22:00,
2013-06-07 09:33:00,57.0,55.0,29.88,WNW,290,3.0,-999.0,94,0.00,,,-99.99,,2013-06-07 16:33:00,
2013-06-07 09:43:00,57.0,55.0,29.88,WNW,290,3.0,-999.0,94,0.00,,,-99.99,,2013-06-07 16:43:00,
2013-06-07 09:52:00,57.0,55.0,29.88,WNW,290,3.0,-999.0,94,0.00,,,-99.99,,2013-06-07 16:52:00,
2013-06-07 10:22:00,59.0,57.0,29.88,West,270,2.0,-999.0,93,0.00,,,-99.99,,2013-06-07 17:22:00,
2013-06-07 10:32:00,59.0,57.0,29.88,West,270,2.0,-999.0,93,0.00,,,-99.99,,2013-06-07 17:32:00,
2013-06-07 10:42:00,59.0,57.0,29.88,West,270,2.0,-999.0,93,0.00,,,-99.99,,2013-06-07 17:42:00,
2013-06-07 10:52:00,59.0,57.0,29.88,West,270,2.0,-999.0,93,0.00,,,-99.99,,2013-06-07 17:52:00,
2013-06-07 10:55:00,60.0,57.0,29.88,West,280,3.0,-999.0,89,0.00,,,-99.99,,2013-06-07 17:55:00,
2013-06-07 11:23:00,60.0,57.0,29.88,West,280,3.0,-999.0,89,0.00,,,-99.99,,2013-06-07 18:23:00,
2013-06-07 11:35:00,60.0,57.0,29.88,West,280,3.0,-999.0,89,0.00,,,-99.99,,2013-06-07 18:35:00,
2013-06-07 11:43:00,60.0,57.0,29.88,West,280,3.0,-999.0,89,0.00,,,-99.99,,2013-06-07 18:43:00,
2013-06-07 12:27:00,63.0,57.0,29.87,West,270,7.0,-999.0,82,0.00,,,-99.99,,2013-06-07 19:27:00,
2013-06-07 12:34:00,63.0,57.0,29.87,West,270,7.0,-999.0,82,0.00,,,-99.99,,2013-06-07 19:34:00,
2013-06-07 12:54:00,63.0,57.0,29.87,West,270,7.0,-999.0,82,0.00,,,-99.99,,2013-06-07 19:54:00,
2013-06-07 13:24:00,65.0,58.0,29.85,West,260,8.0,-999.0,77,0.00,,,-99.99,,2013-06-07 20:24:00,
2013-06-07 13:36:00,65.0,58.0,29.85,West,260,8.0,-999.0,77,0.00,,,-99.99,,2013-06-07 20:36:00,
2013-06-07 13:44:00,65.0,58.0,29.85,West,260,8.0,-999.0,77,0.00,,,-99.99,,2013-06-07 20:44:00,
2013-06-07 13:53:00,65.0,58.0,29.85,West,260,8.0,-999.0,77,0.00,,,-99.99,,2013-06-07 20:53:00,
2013-06-07 13:55:00,65.0,58.0,29.84,West,280,7.0,-999.0,77,0.00,,,-99.99,,2013-06-07 20:55:00,
2013-06-07 14:25:00,65.0,58.0,29.84,West,280,7.0,-999.0,77,0.00,,,-99.99,,2013-06-07 21:25:00,
2013-06-07 14:38:00,65.0,58.0,29.84,West,280,7.0,-999.0,77,0.00,,,-99.99,,2013-06-07 21:38:00,
2013-06-07 14:44:00,65.0,58.0,29.84,West,280,7.0,-999.0,77,0.00,,,-99.99,,2013-06-07 21:44:00,
2013-06-07 14:54:00,65.0,57.0,29.82,West,280,8.0,-999.0,76,0.00,,,-99.99,,2013-06-07 21:54:00,
2013-06-07 15:25:00,65.0,57.0,29.82,West,280,8.0,-999.0,76,0.00,,,-99.99,,2013-06-07 22:25:00,
2013-06-07 15:35:00,65.0,57.0,29.82,West,280,8.0,-999.0,76,0.00,,,-99.99,,2013-06-07 22:35:00,
2013-06-07 15:44:00,65.0,57.0,29.82,West,280,8.0,-999.0,76,0.00,,,-99.99,,2013-06-07 22:44:00,
2013-06-07 16:35:00,65.0,57.0,29.81,West,260,4.0,-999.0,76,0.00,,,-99.99,,2013-06-07 23:35:00,
2013-06-07 16:46:00,65.0,57.0,29.81,West,260,4.0,-999.0,76,0.00,,,-99.99,,2013-06-07 23:46:00,
2013-06-07 17:26:00,64.0,58.0,29.80,West,280,5.0,-999.0,80,0.00,,,-99.99,,2013-06-08 00:26:00,
2013-06-07 17:34:00,64.0,58.0,29.80,West,280,5.0,-999.0,80,0.00,,,-99.99,,2013-06-08 00:34:00,
2013-06-07 17:44:00,64.0,58.0,29.80,West,280,5.0,-999.0,80,0.00,,,-99.99,,2013-06-08 00:44:00,
2013-06-07 17:53:00,64.0,58.0,29.80,West,280,5.0,-999.0,80,0.00,,,-99.99,,2013-06-08 00:53:00,
2013-06-07 18:26:00,65.0,58.0,29.80,West,260,3.0,-999.0,77,0.00,,,-99.99,,2013-06-08 01:26:00,
2013-06-07 18:37:00,65.0,58.0,29.80,West,260,3.0,-999.0,77,0.00,,,-99.99,,2013-06-08 01:37:00,
2013-06-07 18:44:00,65.0,58.0,29.80,West,260,3.0,-999.0,77,0.00,,,-99.99,,2013-06-08 01:44:00,
2013-06-07 18:54:00,65.0,58.0,29.80,West,260,3.0,-999.0,77,0.00,,,-99.99,,2013-06-08 01:54:00,
2013-06-07 19:27:00,61.0,56.0,29.81,SW,220,2.0,-999.0,84,0.00,,,-99.99,,2013-06-08 02:27:00,
2013-06-07 19:33:00,61.0,56.0,29.81,SW,220,2.0,-999.0,84,0.00,,,-99.99,,2013-06-08 02:33:00,
2013-06-07 19:46:00,61.0,56.0,29.81,SW,220,2.0,-999.0,84,0.00,,,-99.99,,2013-06-08 02:46:00,
2013-06-07 19:54:00,61.0,56.0,29.81,SW,220,2.0,-999.0,84,0.00,,,-99.99,,2013-06-08 02:54:00,
2013-06-07 20:25:00,60.0,56.0,29.81,West,280,1.0,-999.0,88,0.00,,,-99.99,,2013-06-08 03:25:00,
2013-06-07 20:48:00,60.0,56.0,29.81,West,280,1.0,-999.0,88,0.00,,,-99.99,,2013-06-08 03:48:00,
2013-06-07 20:54:00,60.0,56.0,29.81,West,280,1.0,-999.0,88,0.00,,,-99.99,,2013-06-08 03:54:00,
2013-06-07 21:23:00,59.0,56.0,29.83,SW,230,1.0,-999.0,89,0.00,,,-99.99,,2013-06-08 04:23:00,
2013-06-07 21:33:00,59.0,56.0,29.83,SW,230,1.0,-999.0,89,0.00,,,-99.99,,2013-06-08 04:33:00,
2013-06-07 21:42:00,59.0,56.0,29.83,SW,230,1.0,-999.0,89,0.00,,,-99.99,,2013-06-08 04:42:00,
2013-06-07 21:53:00,59.0,56.0,29.83,SW,230,1.0,-999.0,89,0.00,,,-99.99,,2013-06-08 04:53:00,
2013-06-07 22:22:00,59.0,56.0,29.84,North,0,0.0,-999.0,90,0.00,,,-99.99,,2013-06-08 05:22:00,
2013-06-07 22:32:00,59.0,56.0,29.84,North,0,0.0,-999.0,90,0.00,,,-99.99,,2013-06-08 05:32:00,
2013-06-07 22:42:00,59.0,56.0,29.84,North,0,0.0,-999.0,90,0.00,,,-99.99,,2013-06-08 05:42:00,
2013-06-07 22:52:00,59.0,56.0,29.84,North,0,0.0,-999.0,90,0.00,,,-99.99,,2013-06-08 05:52:00,
2013-06-07 23:22:00,58.0,55.0,29.83,North,0,0.0,-999.0,91,0.00,,,-99.99,,2013-06-08 06:22:00,
2013-06-07 23:32:00,58.0,55.0,29.83,North,0,0.0,-999.0,91,0.00,,,-99.99,,2013-06-08 06:32:00,
2013-06-07 23:42:00,58.0,55.0,29.83,North,0,0.0,-999.0,91,0.00,,,-99.99,,2013-06-08 06:42:00,
2013-06-07 23:52:00,58.0,55.0,29.83,North,0,0.0,-999.0,91,0.00,,,-99.99,,2013-06-08 06:52:00,